Jackson, TN

9:58 AM CST on November 21, 2019 (GMT -0600)
McKellar-Sipes Regional

Weather History for KMKL - August, 2019

Change the Weather History Date:

Friday, August 2, 2019

  Actual Average Record
Temperature  
Mean Temperature 76 °F 79 °F  
Max Temperature 88 °F 91 °F 100 °F (1987)
Min Temperature 63 °F 68 °F 57 °F (1977)
Degree Days  
Heating Degree Days 0 0  
Month to date heating degree days 0 0  
Since 1 June heating degree days 1 2  
Since 1 July heating degree days 0 0  
Cooling Degree Days 11 14  
Month to date cooling degree days 23 28  
Year to date cooling degree days 1055 1031  
Since 1 June cooling degree days 795 816  
Growing Degree Days 26 (Base 50)    
Moisture  
Dew Point 69 °F    
Average Humidity 80    
Maximum Humidity 100    
Minimum Humidity 59    
Precipitation  
Precipitation 0.00 in 0.12 in 1.70 in (1966)
Month to date precipitation 0.00 0.24  
Year to date precipitation 43.32 33.11  
Sea Level Pressure  
Sea Level Pressure 30.02 in    
Wind  
Wind Speed 5 mph (NNW)    
Max Wind Speed 13 mph    
Max Gust Speed 15 mph    
Visibility 10 miles    
Events      
T = Trace of Precipitation, MM = Missing Value Source: NWS Daily Summary

Daily Weather History Graph

Daily Weather History Graph

Search for Another Location

Airport or City:

Astronomy

Aug. 02, 2019 Rise Set
Actual Time 6:04 AM CDT 7:58 PM CDT
Civil Twilight 5:36 AM CDT 8:26 PM CDT
Nautical Twilight 5:02 AM CDT 9:00 PM CDT
Astronomical Twilight 4:26 AM CDT 9:36 PM CDT
Moon 7:41 AM CDT (8/2) 9:30 PM CDT (8/2)
Length of Visible Light 14h 50m
Length of Day
13h 54m
Waxing Crescent, 4% of the Moon is Illuminated
Aug 2
Waxing Crescent
Aug 7
First Quarter
Aug 15
Full
Aug 23
Last Quarter
Aug 30
New

Hourly Weather History & Observations

Time (CDT) Temp. Heat Index Dew Point Humidity Pressure Visibility Wind Dir Wind Speed Gust Speed Precip Events Conditions
12:53 AM 66.0 °F - 64.0 °F 93% 30.06 in 10.0 mi Calm Calm - N/A   Clear
1:53 AM 66.9 °F - 64.0 °F 90% 30.05 in 10.0 mi Calm Calm - N/A   Partly Cloudy
2:53 AM 64.9 °F - 64.0 °F 97% 30.04 in 10.0 mi Calm Calm - N/A   Clear
3:53 AM 64.9 °F - 64.0 °F 97% 30.03 in 9.0 mi NNW 3.5 mph - N/A   Partly Cloudy
4:53 AM 64.0 °F - 63.0 °F 96% 30.03 in 10.0 mi Calm Calm - N/A   Clear
5:53 AM 64.0 °F - 62.1 °F 93% 30.02 in 9.0 mi Calm Calm - N/A   Partly Cloudy
6:53 AM 64.9 °F - 64.0 °F 97% 30.03 in 10.0 mi Calm Calm - N/A   Clear
7:53 AM 71.1 °F - 66.0 °F 84% 30.04 in 10.0 mi North 4.6 mph - N/A   Clear
8:53 AM 75.0 °F - 68.0 °F 79% 30.05 in 10.0 mi Calm Calm - N/A   Clear
9:53 AM 79.0 °F - 70.0 °F 74% 30.06 in 10.0 mi NW 6.9 mph - N/A   Clear
10:53 AM 81.0 °F 84.9 °F 71.1 °F 72% 30.06 in 10.0 mi Variable 4.6 mph - N/A   Clear
11:53 AM 84.9 °F 89.4 °F 70.0 °F 61% 30.05 in 10.0 mi Variable 6.9 mph - N/A   Clear
12:53 PM 86.0 °F 91.5 °F 71.1 °F 61% 30.04 in 10.0 mi NNW 9.2 mph - N/A   Partly Cloudy
1:53 PM 87.1 °F 93.6 °F 72.0 °F 61% 30.02 in 10.0 mi North 10.4 mph - N/A   Scattered Clouds
2:53 PM 87.1 °F 92.8 °F 71.1 °F 59% 30.00 in 10.0 mi North 10.4 mph - N/A   Mostly Cloudy
3:53 PM 87.1 °F 92.8 °F 71.1 °F 59% 29.98 in 10.0 mi North 6.9 mph - N/A   Clear
4:53 PM 87.1 °F 92.8 °F 71.1 °F 59% 29.97 in 10.0 mi North 9.2 mph - N/A   Clear
5:53 PM 86.0 °F 91.5 °F 71.1 °F 61% 29.96 in 10.0 mi NNW 9.2 mph - N/A   Clear
6:53 PM 84.0 °F 89.6 °F 72.0 °F 67% 29.96 in 10.0 mi NNW 9.2 mph - N/A   Clear
7:53 PM 80.1 °F 83.8 °F 72.0 °F 76% 29.97 in 10.0 mi North 6.9 mph - N/A   Clear
8:53 PM 75.9 °F - 72.0 °F 87% 29.98 in 10.0 mi North 5.8 mph - N/A   Clear
9:53 PM 73.0 °F - 71.1 °F 93% 29.99 in 10.0 mi Calm Calm - N/A   Clear
10:53 PM 73.0 °F - 71.1 °F 93% 29.99 in 8.0 mi Calm Calm - N/A   Clear
11:53 PM 72.0 °F - 71.1 °F 97% 30.00 in 9.0 mi Calm Calm - N/A   Clear